• In Czech Republic
  • List of Countries
  • For 7 days
  • Water Temperature
  • Satellite Maps
  • Weather Map
  • Weather Widgets
  • user-avatar
    Login

    Hourly Weather Fier

    Today, 18 January, Thursday

    Time Temperature Precipitation Wind Pressure Humidity
    00:00 +6°C° 0.2 mm 11 mps 752 mmHg 81%
    01:00 +4°C° 0 mm 12 mps 752 mmHg 80%
    02:00 +4°C° 0 mm 12 mps 753 mmHg 80%
    03:00 +3°C° 0 mm 12 mps 755 mmHg 79%
    04:00 +2°C° 0 mm 12 mps 756 mmHg 78%
    05:00 +2°C° 0 mm 11 mps 757 mmHg 77%
    06:00 +1°C° 0 mm 10 mps 758 mmHg 76%
    07:00 +1°C° 0 mm 9 mps 759 mmHg 74%
    08:00 +2°C° 0 mm 9 mps 760 mmHg 66%
    09:00 +3°C° 0 mm 9 mps 761 mmHg 58%
    10:00 +5°C° 0 mm 9 mps 761 mmHg 49%
    11:00 +6°C° 0 mm 9 mps 762 mmHg 48%
    12:00 +7°C° 0 mm 8 mps 762 mmHg 46%
    13:00 +7°C° 0 mm 8 mps 762 mmHg 44%
    14:00 +8°C° 0 mm 7 mps 763 mmHg 49%
    15:00 +7°C° 0 mm 5 mps 763 mmHg 53%
    16:00 +7°C° 0 mm 4 mps 763 mmHg 57%
    17:00 +7°C° 0 mm 3 mps 763 mmHg 58%
    18:00 +5°C° 0 mm 3 mps 763 mmHg 58%
    19:00 +5°C° 0 mm 2 mps 763 mmHg 59%
    20:00 +5°C° 0 mm 2 mps 763 mmHg 57%
    21:00 +5°C° 0 mm 2 mps 764 mmHg 56%
    22:00 +5°C° 0 mm 2 mps 764 mmHg 54%
    23:00 +4°C° 0 mm 3 mps 764 mmHg 53%

    Tomorrow, 19 January, Friday

    Time Temperature Precipitation Wind Pressure Humidity
    00:00 +4°C° 0 mm 3 mps 764 mmHg 53%
    01:00 +4°C° 0 mm 3 mps 764 mmHg 52%
    02:00 +4°C° 0 mm 4 mps 763 mmHg 54%
    03:00 +4°C° 0 mm 4 mps 763 mmHg 55%
    04:00 +4°C° 0 mm 4 mps 763 mmHg 57%
    05:00 +3°C° 0 mm 5 mps 763 mmHg 57%
    06:00 +3°C° 0 mm 5 mps 763 mmHg 57%
    07:00 +3°C° 0 mm 5 mps 763 mmHg 58%
    08:00 +6°C° 0 mm 5 mps 762 mmHg 58%
    09:00 +8°C° 0 mm 5 mps 762 mmHg 57%
    10:00 +10°C° 0 mm 5 mps 762 mmHg 57%
    11:00 +10°C° 0 mm 5 mps 762 mmHg 57%
    12:00 +12°C° 0 mm 5 mps 761 mmHg 57%
    13:00 +13°C° 0 mm 5 mps 761 mmHg 58%
    14:00 +12°C° 0 mm 5 mps 761 mmHg 62%
    15:00 +12°C° 0 mm 5 mps 761 mmHg 66%
    16:00 +10°C° 0 mm 5 mps 760 mmHg 70%
    17:00 +9°C° 0 mm 5 mps 760 mmHg 73%
    18:00 +9°C° 0 mm 6 mps 761 mmHg 76%
    19:00 +8°C° 0 mm 6 mps 761 mmHg 79%
    20:00 +8°C° 0 mm 6 mps 760 mmHg 81%
    21:00 +8°C° 0 mm 6 mps 760 mmHg 82%
    22:00 +7°C° 0 mm 6 mps 760 mmHg 84%
    23:00 +7°C° 0 mm 6 mps 760 mmHg 84%

    Day after tomorrow, 20 January, Saturday

    Time Temperature Precipitation Wind Pressure Humidity
    00:00 +7°C° 0 mm 6 mps 760 mmHg 85%
    01:00 +7°C° 0 mm 6 mps 760 mmHg 86%
    02:00 +7°C° 0 mm 6 mps 759 mmHg 86%
    03:00 +7°C° 0 mm 6 mps 759 mmHg 86%
    04:00 +8°C° 0 mm 6 mps 759 mmHg 86%
    05:00 +8°C° 0 mm 6 mps 759 mmHg 86%
    06:00 +8°C° 0 mm 6 mps 759 mmHg 86%
    07:00 +8°C° 0 mm 5 mps 759 mmHg 86%
    08:00 +9°C° 0.1 mm 6 mps 759 mmHg 83%
    09:00 +10°C° 0.1 mm 6 mps 759 mmHg 80%
    10:00 +13°C° 0.1 mm 6 mps 759 mmHg 77%
    11:00 +13°C° 0.1 mm 6 mps 758 mmHg 76%
    12:00 +14°C° 0.1 mm 6 mps 758 mmHg 74%
    13:00 +14°C° 0.1 mm 6 mps 757 mmHg 73%
    14:00 +14°C° 0.4 mm 6 mps 757 mmHg 77%
    15:00 +13°C° 0.4 mm 6 mps 757 mmHg 81%
    16:00 +12°C° 0.4 mm 5 mps 756 mmHg 86%
    17:00 +12°C° 0.7 mm 5 mps 757 mmHg 88%
    18:00 +11°C° 0.7 mm 4 mps 757 mmHg 91%
    19:00 +10°C° 0.7 mm 4 mps 757 mmHg 93%
    20:00 +10°C° 0.4 mm 4 mps 757 mmHg 93%
    21:00 +10°C° 0.4 mm 3 mps 757 mmHg 93%
    22:00 +10°C° 0.4 mm 3 mps 757 mmHg 93%
    23:00 +10°C° 0.4 mm 3 mps 756 mmHg 93%

    21 January, Sunday

    Time Temperature Precipitation Wind Pressure Humidity
    00:00 +10°C° 0.4 mm 3 mps 756 mmHg 93%
    01:00 +9°C° 0.4 mm 3 mps 756 mmHg 93%
    02:00 +10°C° 0.4 mm 3 mps 755 mmHg 93%
    03:00 +10°C° 0.4 mm 4 mps 755 mmHg 92%
    04:00 +10°C° 0.4 mm 4 mps 754 mmHg 92%
    05:00 +10°C° 0.4 mm 4 mps 754 mmHg 91%
    06:00 +10°C° 0.4 mm 4 mps 753 mmHg 91%
    07:00 +9°C° 0.4 mm 5 mps 753 mmHg 90%
    08:00 +9°C° 0.8 mm 5 mps 753 mmHg 87%
    09:00 +11°C° 0.8 mm 4 mps 752 mmHg 83%
    10:00 +12°C° 0.8 mm 4 mps 752 mmHg 80%
    11:00 +12°C° 1.4 mm 4 mps 751 mmHg 79%
    12:00 +12°C° 1.4 mm 3 mps 751 mmHg 78%
    13:00 +12°C° 1.4 mm 3 mps 750 mmHg 78%
    14:00 +11°C° 1.5 mm 3 mps 750 mmHg 80%
    15:00 +11°C° 1.5 mm 3 mps 750 mmHg 83%
    16:00 +11°C° 1.5 mm 3 mps 750 mmHg 85%
    17:00 +10°C° 0.5 mm 4 mps 751 mmHg 86%
    18:00 +10°C° 0.5 mm 4 mps 751 mmHg 87%
    19:00 +8°C° 0.5 mm 5 mps 752 mmHg 88%
    20:00 +8°C° 0 mm 5 mps 753 mmHg 86%
    21:00 +8°C° 0 mm 6 mps 753 mmHg 85%
    22:00 +7°C° 0 mm 6 mps 754 mmHg 83%
    23:00 +6°C° 0 mm 7 mps 755 mmHg 81%

    22 January, Monday

    Time Temperature Precipitation Wind Pressure Humidity
    00:00 +5°C° 0 mm 7 mps 755 mmHg 79%
    01:00 +5°C° 0 mm 7 mps 756 mmHg 77%
    02:00 +4°C° 0 mm 7 mps 756 mmHg 76%
    03:00 +4°C° 0 mm 7 mps 756 mmHg 76%
    04:00 +3°C° 0 mm 6 mps 757 mmHg 75%
    05:00 +3°C° 0 mm 6 mps 757 mmHg 75%
    06:00 +3°C° 0 mm 6 mps 758 mmHg 74%
    07:00 +2°C° 0 mm 6 mps 758 mmHg 73%
    08:00 +4°C° 0 mm 6 mps 759 mmHg 66%
    09:00 +5°C° 0 mm 6 mps 759 mmHg 60%
    10:00 +7°C° 0 mm 6 mps 760 mmHg 53%
    11:00 +8°C° 0 mm 7 mps 760 mmHg 49%
    12:00 +8°C° 0 mm 7 mps 760 mmHg 45%
    13:00 +9°C° 0 mm 7 mps 760 mmHg 42%
    14:00 +9°C° 0 mm 7 mps 760 mmHg 45%
    15:00 +8°C° 0 mm 6 mps 760 mmHg 49%
    16:00 +8°C° 0 mm 6 mps 761 mmHg 52%
    17:00 +5°C° 0 mm 6 mps 761 mmHg 54%
    18:00 +4°C° 0 mm 6 mps 762 mmHg 55%
    19:00 +3°C° 0 mm 5 mps 762 mmHg 56%
    20:00 +3°C° 0 mm 5 mps 763 mmHg 56%
    21:00 +3°C° 0 mm 5 mps 763 mmHg 55%
    22:00 +2°C° 0 mm 5 mps 764 mmHg 55%
    23:00 +2°C° 0 mm 5 mps 764 mmHg 55%

    23 January, Tuesday

    Time Temperature Precipitation Wind Pressure Humidity
    00:00 +2°C° 0 mm 5 mps 764 mmHg 54%
    01:00 +2°C° 0 mm 5 mps 765 mmHg 54%
    02:00 +2°C° 0 mm 5 mps 765 mmHg 54%
    03:00 +1°C° 0 mm 4 mps 765 mmHg 53%
    04:00 +1°C° 0 mm 4 mps 765 mmHg 53%
    05:00 +1°C° 0 mm 4 mps 766 mmHg 52%
    06:00 +1°C° 0 mm 4 mps 766 mmHg 51%
    07:00 +1°C° 0 mm 4 mps 766 mmHg 49%
    08:00 +4°C° 0 mm 4 mps 766 mmHg 44%
    09:00 +6°C° 0 mm 4 mps 767 mmHg 38%
    10:00 +8°C° 0 mm 3 mps 767 mmHg 32%
    11:00 +9°C° 0 mm 3 mps 767 mmHg 29%
    12:00 +10°C° 0 mm 3 mps 767 mmHg 27%
    13:00 +11°C° 0 mm 3 mps 767 mmHg 24%
    14:00 +11°C° 0 mm 3 mps 767 mmHg 30%
    15:00 +10°C° 0 mm 4 mps 767 mmHg 36%
    16:00 +8°C° 0 mm 4 mps 767 mmHg 41%
    17:00 +7°C° 0 mm 4 mps 767 mmHg 42%
    18:00 +6°C° 0 mm 4 mps 768 mmHg 43%
    19:00 +5°C° 0 mm 4 mps 768 mmHg 44%
    20:00 +5°C° 0 mm 3 mps 768 mmHg 43%
    21:00 +4°C° 0 mm 3 mps 768 mmHg 43%
    22:00 +4°C° 0 mm 3 mps 768 mmHg 42%
    23:00 +4°C° 0 mm 3 mps 768 mmHg 41%
    Show more